Weather History for KABE - August, 2013

Change the Weather History Date:

Monday, August 19, 2013

  Actual Average Record
Temperature  
Mean Temperature 68 °F 72 °F  
Max Temperature 76 °F 82 °F 93 °F (1937)
Min Temperature 59 °F 61 °F 48 °F (1963)
Degree Days  
Heating Degree Days 0 0  
Month to date heating degree days 4 0  
Since 1 June heating degree days 13 36  
Since 1 July heating degree days 4 3  
Cooling Degree Days 3 7  
Month to date cooling degree days 90 145  
Year to date cooling degree days 733 610  
Since 1 June cooling degree days 661 565  
Growing Degree Days 17 (Base 50)    
Moisture  
Dew Point 62 °F    
Average Humidity 80    
Maximum Humidity 100    
Minimum Humidity 60    
Precipitation  
Precipitation 0.00 in 0.12 in 0.79 in (1932)
Month to date precipitation 5.99 2.42  
Year to date precipitation 30.54 28.50  
Snow  
Snow 0.00 in 0.00 in 0.00 in (2002)
Month to date snowfall 0.0 0.0  
Since 1 June snowfall 0.0 0.0  
Since 1 July snowfall 0.0 0.0  
Snow Depth 0.00 in    
Sea Level Pressure  
Sea Level Pressure 30.11 in    
Wind  
Wind Speed 5 mph (WSW)    
Max Wind Speed 12 mph    
Max Gust Speed 15 mph    
Visibility 8 miles    
Events      
T = Trace of Precipitation, MM = Missing Value Source: NWS Daily Summary

Daily Weather History Graph

Daily Weather History Graph

Search for Another Location

Airport or City:

Trip Planner

Search our weather history database for the weather conditions in past years. The results will help you decide how hot, cold, wet, or windy it might be!

Date:

Astronomy

Aug. 19, 2013 Rise Set
Actual Time 6:16 AM EDT 7:53 PM EDT
Civil Twilight 5:47 AM EDT 8:22 PM EDT
Nautical Twilight 5:12 AM EDT 8:57 PM EDT
Astronomical Twilight 4:34 AM EDT 9:34 PM EDT
Moon 6:43 PM EDT (8/19) 4:32 AM EDT (8/19)
Length of Visible Light 14h 35m
Length of Day
13h 37m
Waxing Gibbous, 97% of the Moon is Illuminated
Aug 19
Waxing Gibbous
Aug 20
Full
Aug 28
Last Quarter
Sep 5
New
Sep 12
First Quarter

Hourly Weather History & Observations

Time (EDT) Temp. Dew Point Humidity Pressure Visibility Wind Dir Wind Speed Gust Speed Precip Events Conditions
12:51 AM 63.0 °F 60.1 °F 90% 30.16 in 9.0 mi West 3.5 mph - N/A   Clear
1:51 AM 61.0 °F 60.1 °F 97% 30.15 in 5.0 mi WSW 3.5 mph - N/A   Clear
2:51 AM 62.1 °F 60.1 °F 93% 30.14 in 8.0 mi SW 3.5 mph - N/A   Scattered Clouds
3:51 AM 60.1 °F 59.0 °F 96% 30.14 in 6.0 mi WSW 3.5 mph - N/A   Partly Cloudy
4:51 AM 60.1 °F 59.0 °F 96% 30.14 in 6.0 mi SW 3.5 mph - N/A   Clear
5:51 AM 59.0 °F 57.9 °F 96% 30.14 in 5.0 mi WSW 3.5 mph - N/A   Clear
6:51 AM 61.0 °F 59.0 °F 93% 30.14 in 4.0 mi Calm Calm - N/A   Clear
7:51 AM 64.0 °F 61.0 °F 90% 30.15 in 5.0 mi SW 5.8 mph - N/A   Clear
8:51 AM 66.0 °F 60.1 °F 81% 30.14 in 10.0 mi West 4.6 mph - N/A   Clear
9:51 AM 68.0 °F 59.0 °F 73% 30.14 in 10.0 mi West 5.8 mph - N/A   Clear
10:51 AM 72.0 °F 61.0 °F 68% 30.12 in 10.0 mi Variable 3.5 mph - N/A   Clear
11:51 AM 73.0 °F 59.0 °F 61% 30.11 in 10.0 mi West 4.6 mph - N/A   Clear
12:51 PM 75.0 °F 61.0 °F 62% 30.09 in 10.0 mi West 3.5 mph - N/A   Clear
1:51 PM 75.0 °F 63.0 °F 66% 30.09 in 10.0 mi WSW 10.4 mph - N/A   Clear
2:51 PM 75.0 °F 63.0 °F 66% 30.08 in 10.0 mi SW 8.1 mph - N/A   Partly Cloudy
3:51 PM 75.0 °F 64.0 °F 69% 30.07 in 10.0 mi SW 6.9 mph - N/A   Clear
4:51 PM 75.9 °F 63.0 °F 64% 30.07 in 10.0 mi WSW 9.2 mph - N/A   Partly Cloudy
5:51 PM 75.0 °F 64.9 °F 71% 30.06 in 10.0 mi WSW 6.9 mph - N/A   Overcast
6:51 PM 73.9 °F 64.9 °F 73% 30.06 in 10.0 mi SW 6.9 mph - N/A   Overcast
7:51 PM 72.0 °F 64.9 °F 78% 30.06 in 10.0 mi WSW 5.8 mph - N/A   Clear
8:51 PM 68.0 °F 64.0 °F 87% 30.06 in 10.0 mi SW 4.6 mph - N/A   Clear
9:51 PM 68.0 °F 64.0 °F 87% 30.08 in 10.0 mi WSW 3.5 mph - N/A   Clear
10:51 PM 66.0 °F 64.0 °F 93% 30.09 in 9.0 mi West 3.5 mph - N/A   Clear
11:51 PM 64.0 °F 62.1 °F 93% 30.09 in 9.0 mi SW 3.5 mph - N/A   Clear